Location: Newark
(53.3469°N, 7.1606°E)
Time: 03:18:09
(UTC+00:00)

N. Korean satellite - Pass Details

Date: 20 November 2019
Orbit: 456 x 506 km, 97.2° (Epoch: 05 December)

Event Time Altitude Azimuth Distance (km) Brightness Sun altitude
Rises 05:39:26 0° 13° (NNE) 2,625 10.3 -12.4°
Reaches altitude 10° 05:41:32 10° 13° (NNE) 1,731 9.3 -12.1°
Maximum altitude 05:45:16 88° 293° (WNW) 511 6.6 -11.5°
Drops below altitude 10° 05:48:57 10° 196° (SSW) 1,698 9.4 -11.0°
Sets 05:51:00 0° 196° (SSW) 2,569 10.3 -10.7°
